STARLINK-32860, 62856

Orbit data source: Space-Track

STARLINK-32860, 62856 is a payload satellite owned by SpaceX/Seattle (US) in LEO that was launched on Sat, 01 Feb 2025 UTC via an FALCON 9 launch vehicle from the Air Force Western Test Range (AFWTR). Payload-class satellites include a variety of spacecraft equipped with specific instruments for various scientific and technological missions. These include communications satellites like Starlink; space stations such as the ISS; scientific satellites like the Hubble; Earth observation satellites from companies like Planet Labs, Umbra, and HawkEye 360; GPS; miniature CubeSats for education and research; and military/defense satellites.

Loading next visibility...
Identifier
62856, 2025-022C
Orbit
LEO
Last TLE update
1 day ago
Origin
Manufacturer
SpaceX/Seattle
Mission
Operational Commercial Communications
Bus & Motor
STARLINK V2M, Unknown motor
Mass
730 kg wet, ~700 kg dry
Launch date (UTC)
2025-02-01 (3 months ago)
Launch vehicle
FALCON 9
Launch site
Air Force Western Test Range (AFWTR)
Object type
Payload
Rocket body
Debris
Shape & HBR
Box + 2 Pan, 29 m
Radar Cross Section
33.884 m², Large (>1 m²)

Expand to show TLE details & history

TLE from 1 day ago
0 STARLINK-32860
1 62856U 25022C   25128.33149138  .00000546  00000-0  23629-4 0  9999
2 62856  53.1616 111.8623 0001524  90.4293 269.6886 15.39616073 15093
Epoch: 2025-05-08T07:57Z
Definitive object data (Epoch: 2025-05-08T07:57:20.855Z)
Latitude
-0.00005°
Longitude
126.12185°
Altitude
448.153 km
Speed
7.645 km/s
True Right ascension
07h 27m 26s
True Declination
0° 00' 00"
Sunlit
Object was in daylight at TLE epoch
Visualization TLE readout
Latitude
-42.82301°
Longitude
-15.00542°
Altitude
462.413 km
Speed
7.635 km/s
Apparent Right ascension
01h 13m 22s
Apparent Declination
-52° 52' 17"
Sunlit
Object is in daylight
Visualization observer readout
Local Sidereal Time
16:30:21
Azimuth
128.11° SE
Elevation
-54.47°
Doppler factor
1
Orbital elements
Apogee altitude
448.541 km
Perigee altitude
446.461 km
Semi-major axis
6,825.638 km
Eccentricity
0.0001524
Inclination
53.1616°
RAAN
111.8623°
Arg. of periapsis
90.4293°
True anomaly
269.67114°
Mean anomaly
269.6886°
Eccentric anomaly
269.67987°
Mean motion
3.84883 °/min
BSTAR
0.000023629
Orbital period
93.54 mins
Loading maneuver chart data...
Loading SW <> Apogee altitude chart data...
Loading historical data...
Loading historical data...
Loading historical data...
Loading historical data...
Loading historical data...
Loading historical data...
Loading historical data...

STARLINK-32860 Visibility forecast

Observer location: undefined°, undefined°

Span
Click to sort rows by Start time (UTC) header in descending order
Start Az.
Max El. time (UTC)
Max El. Az.
Max El.
End time (UTC)
End Az.
4 mins2025-05-09 09:26:12.903Z270.201° WNW2025-05-09 09:28:12.903Z228.233° WSW18.808°2025-05-09 09:30:12.903Z188.324° SSW
5 mins2025-05-10 00:38:12.903Z189.299° SSW2025-05-10 00:40:12.903Z131.199° SE30.405°2025-05-10 00:43:12.903Z66.814° ENE
4 mins2025-05-10 02:16:12.903Z293.613° NW2025-05-10 02:17:12.903Z321.056° NNW24.746°2025-05-10 02:20:12.903Z28.357° NE
4 mins2025-05-10 07:11:12.903Z349.901° N2025-05-10 07:12:12.903Z19.958° NNE27.942°2025-05-10 07:15:12.903Z93.781° ESE
|